ONEWEB-0110 (47260 NORAD) Tracking and Keplerian Element Data

This shows tracking and keplerian element data for the satellite.

Feedback or suggestion? Click here.




ElementValue
Catalog47260
NameONEWEB-0110
Epoch Orbit1080
Epoch Day60.16668981
Epoch Year2021
RAAN16.3491
Inclination87.6267
Eccentricity0.0010294
Argument of Perigee35.9046
Mean Anonmoly358.4062
Mean Motion14.00270259
Decay Rate-0.01024821
L11 47260U 20100C 21060.16668981 -.01024821 00000-0 -73689+0 0 9998
L22 47260 87.6267 16.3491 0010294 35.9046 358.4062 14.00270259 10801

Live tracking and technical data element details for ONEWEB-0110 (NORAD 47260). ONEWEB-0110 can be tracked NOW for your location showing map with azimuth and elevation plus other details from your city location.

Track the satellite on the map from your city or location and see movement details for azimuth, elevation, latitude, longitude, range, height, and movement on the map or in text.







IsCatalogInMostPopularTable: catalog: 47260, numindb: 20
Update: records affected: 1



GetName: 47260 ONEWEB-0110

Hit Count: updated at: Mon, 01 Mar 2021 21:56:37 GMT